#datetime,building,power
2023-03-09T00:00:00,sdl,7.56
2023-03-09T00:01:00,sdl,7.50
2023-03-09T00:02:00,sdl,7.82
2023-03-09T00:03:00,sdl,7.27
2023-03-09T00:04:00,sdl,7.30
2023-03-09T00:05:00,sdl,7.47
2023-03-09T00:06:00,sdl,7.28
2023-03-09T00:07:00,sdl,7.34
2023-03-09T00:08:00,sdl,5.06
2023-03-09T00:09:00,sdl,5.84
2023-03-09T00:10:00,sdl,5.18
2023-03-09T00:11:00,sdl,5.28
2023-03-09T00:12:00,sdl,5.81
2023-03-09T00:13:00,sdl,5.75
2023-03-09T00:14:00,sdl,5.76
2023-03-09T00:15:00,sdl,5.75
2023-03-09T00:16:00,sdl,5.73
2023-03-09T00:17:00,sdl,5.79
2023-03-09T00:18:00,sdl,5.66
2023-03-09T00:19:00,sdl,5.78
2023-03-09T00:20:00,sdl,5.78
2023-03-09T00:21:00,sdl,5.86
2023-03-09T00:22:00,sdl,5.48
2023-03-09T00:23:00,sdl,5.51
2023-03-09T00:24:00,sdl,5.43
2023-03-09T00:25:00,sdl,5.44
2023-03-09T00:26:00,sdl,5.45
2023-03-09T00:27:00,sdl,5.50
2023-03-09T00:28:00,sdl,5.60
2023-03-09T00:29:00,sdl,6.92
2023-03-09T00:30:00,sdl,5.95
2023-03-09T00:31:00,sdl,5.40
2023-03-09T00:32:00,sdl,5.47
2023-03-09T00:33:00,sdl,5.69
2023-03-09T00:34:00,sdl,5.08
2023-03-09T00:35:00,sdl,5.01
2023-03-09T00:36:00,sdl,5.24
2023-03-09T00:37:00,sdl,5.61
2023-03-09T00:38:00,sdl,5.91
2023-03-09T00:39:00,sdl,5.74
2023-03-09T00:40:00,sdl,5.99
2023-03-09T00:41:00,sdl,7.48
2023-03-09T00:42:00,sdl,8.02
2023-03-09T00:43:00,sdl,7.75
2023-03-09T00:44:00,sdl,9.69
2023-03-09T00:45:00,sdl,8.73
2023-03-09T00:46:00,sdl,6.78
2023-03-09T00:47:00,sdl,6.84
2023-03-09T00:48:00,sdl,5.04
2023-03-09T00:49:00,sdl,5.00
2023-03-09T00:50:00,sdl,5.13
2023-03-09T00:51:00,sdl,5.13
2023-03-09T00:52:00,sdl,5.02
2023-03-09T00:53:00,sdl,5.17
2023-03-09T00:54:00,sdl,5.45
2023-03-09T00:55:00,sdl,5.10
2023-03-09T00:56:00,sdl,5.06
2023-03-09T00:57:00,sdl,5.03
2023-03-09T00:58:00,sdl,4.99
2023-03-09T00:59:00,sdl,2.71
2023-03-09T01:00:00,sdl,2.78
2023-03-09T01:01:00,sdl,3.39
2023-03-09T01:02:00,sdl,2.76
2023-03-09T01:03:00,sdl,2.60
2023-03-09T01:04:00,sdl,2.39
2023-03-09T01:05:00,sdl,2.29
2023-03-09T01:06:00,sdl,3.06
2023-03-09T01:07:00,sdl,2.49
2023-03-09T01:08:00,sdl,2.53
2023-03-09T01:09:00,sdl,2.42
2023-03-09T01:10:00,sdl,2.46
2023-03-09T01:11:00,sdl,2.35
2023-03-09T01:12:00,sdl,2.32
2023-03-09T01:13:00,sdl,2.30
2023-03-09T01:14:00,sdl,2.46
2023-03-09T01:15:00,sdl,2.31
2023-03-09T01:16:00,sdl,2.29
2023-03-09T01:17:00,sdl,2.19
2023-03-09T01:18:00,sdl,2.19
2023-03-09T01:19:00,sdl,2.20
2023-03-09T01:20:00,sdl,2.27
2023-03-09T01:21:00,sdl,2.14
2023-03-09T01:22:00,sdl,2.45
2023-03-09T01:23:00,sdl,2.28
2023-03-09T01:24:00,sdl,2.29
2023-03-09T01:25:00,sdl,2.24
2023-03-09T01:26:00,sdl,2.48
2023-03-09T01:27:00,sdl,2.25
2023-03-09T01:28:00,sdl,2.31
2023-03-09T01:29:00,sdl,4.53
2023-03-09T01:30:00,sdl,4.88
2023-03-09T01:31:00,sdl,4.84
2023-03-09T01:32:00,sdl,4.87
2023-03-09T01:33:00,sdl,4.94
2023-03-09T01:34:00,sdl,4.89
2023-03-09T01:35:00,sdl,4.92
2023-03-09T01:36:00,sdl,4.95
2023-03-09T01:37:00,sdl,5.62
2023-03-09T01:38:00,sdl,5.54
2023-03-09T01:39:00,sdl,4.95
2023-03-09T01:40:00,sdl,4.95
2023-03-09T01:41:00,sdl,2.64
2023-03-09T01:42:00,sdl,2.67
2023-03-09T01:43:00,sdl,2.65
2023-03-09T01:44:00,sdl,2.71
2023-03-09T01:45:00,sdl,2.78
2023-03-09T01:46:00,sdl,2.71
2023-03-09T01:47:00,sdl,2.97
2023-03-09T01:48:00,sdl,2.77
2023-03-09T01:49:00,sdl,2.65
2023-03-09T01:50:00,sdl,3.75
2023-03-09T01:51:00,sdl,2.93
2023-03-09T01:52:00,sdl,2.83
2023-03-09T01:53:00,sdl,4.21
2023-03-09T01:54:00,sdl,3.87
2023-03-09T01:55:00,sdl,3.75
2023-03-09T01:56:00,sdl,5.90
2023-03-09T01:57:00,sdl,6.48
2023-03-09T01:58:00,sdl,6.49
2023-03-09T01:59:00,sdl,5.92
2023-03-09T02:00:00,sdl,6.13
2023-03-09T02:01:00,sdl,5.75
2023-03-09T02:02:00,sdl,6.45
2023-03-09T02:03:00,sdl,6.42
2023-03-09T02:04:00,sdl,6.47
2023-03-09T02:05:00,sdl,6.68
2023-03-09T02:06:00,sdl,7.16
2023-03-09T02:07:00,sdl,7.14
2023-03-09T02:08:00,sdl,4.75
2023-03-09T02:09:00,sdl,4.80
2023-03-09T02:10:00,sdl,2.44
2023-03-09T02:11:00,sdl,2.63
2023-03-09T02:12:00,sdl,2.59
2023-03-09T02:13:00,sdl,2.55
2023-03-09T02:14:00,sdl,2.61
2023-03-09T02:15:00,sdl,2.60
2023-03-09T02:16:00,sdl,2.55
2023-03-09T02:17:00,sdl,2.74
2023-03-09T02:18:00,sdl,2.76
2023-03-09T02:19:00,sdl,2.86
2023-03-09T02:20:00,sdl,2.58
2023-03-09T02:21:00,sdl,2.54
2023-03-09T02:22:00,sdl,2.66
2023-03-09T02:23:00,sdl,2.59
2023-03-09T02:24:00,sdl,3.02
2023-03-09T02:25:00,sdl,3.56
2023-03-09T02:26:00,sdl,3.54
2023-03-09T02:27:00,sdl,2.85
2023-03-09T02:28:00,sdl,2.94
2023-03-09T02:29:00,sdl,2.92
2023-03-09T02:30:00,sdl,3.75
2023-03-09T02:31:00,sdl,3.13
2023-03-09T02:32:00,sdl,3.14
2023-03-09T02:33:00,sdl,2.86
2023-03-09T02:34:00,sdl,2.90
2023-03-09T02:35:00,sdl,2.87
2023-03-09T02:36:00,sdl,2.79
2023-03-09T02:37:00,sdl,2.85
2023-03-09T02:38:00,sdl,2.79
2023-03-09T02:39:00,sdl,3.93
2023-03-09T02:40:00,sdl,2.64
2023-03-09T02:41:00,sdl,5.60
2023-03-09T02:42:00,sdl,5.65
2023-03-09T02:43:00,sdl,5.22
2023-03-09T02:44:00,sdl,5.28
2023-03-09T02:45:00,sdl,5.05
2023-03-09T02:46:00,sdl,5.06
2023-03-09T02:47:00,sdl,4.59
2023-03-09T02:48:00,sdl,4.60
2023-03-09T02:49:00,sdl,4.62
2023-03-09T02:50:00,sdl,4.59
2023-03-09T02:51:00,sdl,4.58
2023-03-09T02:52:00,sdl,4.67
2023-03-09T02:53:00,sdl,5.17
2023-03-09T02:54:00,sdl,4.55
2023-03-09T02:55:00,sdl,4.73
2023-03-09T02:56:00,sdl,4.67
2023-03-09T02:57:00,sdl,3.00
2023-03-09T02:58:00,sdl,2.41
2023-03-09T02:59:00,sdl,3.21
2023-03-09T03:00:00,sdl,2.72
2023-03-09T03:01:00,sdl,2.52
2023-03-09T03:02:00,sdl,2.42
2023-03-09T03:03:00,sdl,3.23
2023-03-09T03:04:00,sdl,3.17
2023-03-09T03:05:00,sdl,2.42
2023-03-09T03:06:00,sdl,2.43
2023-03-09T03:07:00,sdl,2.34
2023-03-09T03:08:00,sdl,2.43
2023-03-09T03:09:00,sdl,2.27
2023-03-09T03:10:00,sdl,2.21
2023-03-09T03:11:00,sdl,2.24
2023-03-09T03:12:00,sdl,2.22
2023-03-09T03:13:00,sdl,2.61
2023-03-09T03:14:00,sdl,2.39
2023-03-09T03:15:00,sdl,2.41
2023-03-09T03:16:00,sdl,2.85
2023-03-09T03:17:00,sdl,2.84
2023-03-09T03:18:00,sdl,2.86
2023-03-09T03:19:00,sdl,2.82
2023-03-09T03:20:00,sdl,3.50
2023-03-09T03:21:00,sdl,2.68
2023-03-09T03:22:00,sdl,2.67
2023-03-09T03:23:00,sdl,2.78
2023-03-09T03:24:00,sdl,4.45
2023-03-09T03:25:00,sdl,4.50
2023-03-09T03:26:00,sdl,4.46
2023-03-09T03:27:00,sdl,5.37
2023-03-09T03:28:00,sdl,4.62
2023-03-09T03:29:00,sdl,4.71
2023-03-09T03:30:00,sdl,2.79
2023-03-09T03:31:00,sdl,2.80
2023-03-09T03:32:00,sdl,2.89
2023-03-09T03:33:00,sdl,2.76
2023-03-09T03:34:00,sdl,5.05
2023-03-09T03:35:00,sdl,5.09
2023-03-09T03:36:00,sdl,5.68
2023-03-09T03:37:00,sdl,4.95
2023-03-09T03:38:00,sdl,4.94
2023-03-09T03:39:00,sdl,4.96
2023-03-09T03:40:00,sdl,5.61
2023-03-09T03:41:00,sdl,5.36
2023-03-09T03:42:00,sdl,4.63
2023-03-09T03:43:00,sdl,4.78
2023-03-09T03:44:00,sdl,4.72
2023-03-09T03:45:00,sdl,5.07
2023-03-09T03:46:00,sdl,5.14
2023-03-09T03:47:00,sdl,4.72
2023-03-09T03:48:00,sdl,5.58
2023-03-09T03:49:00,sdl,2.54
2023-03-09T03:50:00,sdl,3.25
2023-03-09T03:51:00,sdl,2.51
2023-03-09T03:52:00,sdl,3.98
2023-03-09T03:53:00,sdl,4.04
2023-03-09T03:54:00,sdl,4.39
2023-03-09T03:55:00,sdl,5.29
2023-03-09T03:56:00,sdl,3.87
2023-03-09T03:57:00,sdl,3.82
2023-03-09T03:58:00,sdl,4.00
2023-03-09T03:59:00,sdl,3.83
2023-03-09T04:00:00,sdl,4.28
2023-03-09T04:01:00,sdl,4.19
2023-03-09T04:02:00,sdl,4.65
2023-03-09T04:03:00,sdl,4.34
2023-03-09T04:04:00,sdl,4.24
2023-03-09T04:05:00,sdl,4.13
2023-03-09T04:06:00,sdl,4.44
2023-03-09T04:07:00,sdl,4.18
2023-03-09T04:08:00,sdl,5.06
2023-03-09T04:09:00,sdl,4.16
2023-03-09T04:10:00,sdl,3.76
2023-03-09T04:11:00,sdl,4.18
2023-03-09T04:12:00,sdl,4.45
2023-03-09T04:13:00,sdl,4.33
2023-03-09T04:14:00,sdl,4.24
2023-03-09T04:15:00,sdl,4.22
2023-03-09T04:16:00,sdl,4.33
2023-03-09T04:17:00,sdl,4.69
2023-03-09T04:18:00,sdl,6.80
2023-03-09T04:19:00,sdl,6.78
2023-03-09T04:20:00,sdl,6.36
2023-03-09T04:21:00,sdl,6.55
2023-03-09T04:22:00,sdl,6.39
2023-03-09T04:23:00,sdl,7.13
2023-03-09T04:24:00,sdl,6.38
2023-03-09T04:25:00,sdl,6.37
2023-03-09T04:26:00,sdl,6.36
2023-03-09T04:27:00,sdl,6.51
2023-03-09T04:28:00,sdl,6.54
2023-03-09T04:29:00,sdl,4.32
2023-03-09T04:30:00,sdl,4.38
2023-03-09T04:31:00,sdl,4.37
2023-03-09T04:32:00,sdl,4.14
2023-03-09T04:33:00,sdl,4.57
2023-03-09T04:34:00,sdl,3.92
2023-03-09T04:35:00,sdl,3.79
2023-03-09T04:36:00,sdl,4.58
2023-03-09T04:37:00,sdl,3.82
2023-03-09T04:38:00,sdl,3.72
2023-03-09T04:39:00,sdl,3.73
2023-03-09T04:40:00,sdl,4.98
2023-03-09T04:41:00,sdl,3.81
2023-03-09T04:42:00,sdl,3.85
2023-03-09T04:43:00,sdl,3.99
2023-03-09T04:44:00,sdl,6.13
2023-03-09T04:45:00,sdl,8.09
2023-03-09T04:46:00,sdl,8.59
2023-03-09T04:47:00,sdl,8.23
2023-03-09T04:48:00,sdl,8.31
2023-03-09T04:49:00,sdl,7.92
2023-03-09T04:50:00,sdl,8.21
2023-03-09T04:51:00,sdl,6.07
2023-03-09T04:52:00,sdl,6.04
2023-03-09T04:53:00,sdl,6.39
2023-03-09T04:54:00,sdl,6.09
2023-03-09T04:55:00,sdl,6.05
2023-03-09T04:56:00,sdl,6.15
2023-03-09T04:57:00,sdl,6.04
2023-03-09T04:58:00,sdl,6.08
2023-03-09T04:59:00,sdl,3.85
2023-03-09T05:00:00,sdl,3.81
2023-03-09T05:01:00,sdl,3.81
2023-03-09T05:02:00,sdl,3.71
2023-03-09T05:03:00,sdl,3.82
2023-03-09T05:04:00,sdl,4.24
2023-03-09T05:05:00,sdl,4.74
2023-03-09T05:06:00,sdl,4.75
2023-03-09T05:07:00,sdl,4.05
2023-03-09T05:08:00,sdl,4.11
2023-03-09T05:09:00,sdl,4.12
2023-03-09T05:10:00,sdl,4.23
2023-03-09T05:11:00,sdl,4.17
2023-03-09T05:12:00,sdl,4.14
2023-03-09T05:13:00,sdl,4.21
2023-03-09T05:14:00,sdl,4.57
2023-03-09T05:15:00,sdl,4.07
2023-03-09T05:16:00,sdl,3.96
2023-03-09T05:17:00,sdl,4.02
2023-03-09T05:18:00,sdl,4.05
2023-03-09T05:19:00,sdl,4.06
2023-03-09T05:20:00,sdl,3.91
2023-03-09T05:21:00,sdl,4.27
2023-03-09T05:22:00,sdl,4.31
2023-03-09T05:23:00,sdl,4.19
2023-03-09T05:24:00,sdl,4.29
2023-03-09T05:25:00,sdl,4.24
2023-03-09T05:26:00,sdl,3.70
2023-03-09T05:27:00,sdl,3.70
2023-03-09T05:28:00,sdl,3.79
2023-03-09T05:29:00,sdl,3.74
2023-03-09T05:30:00,sdl,3.65
2023-03-09T05:31:00,sdl,5.87
2023-03-09T05:32:00,sdl,5.84
2023-03-09T05:33:00,sdl,6.06
2023-03-09T05:34:00,sdl,6.16
2023-03-09T05:35:00,sdl,5.90
2023-03-09T05:36:00,sdl,5.93
2023-03-09T05:37:00,sdl,6.04
2023-03-09T05:38:00,sdl,6.04
2023-03-09T05:39:00,sdl,6.03
2023-03-09T05:40:00,sdl,5.82
2023-03-09T05:41:00,sdl,5.83
2023-03-09T05:42:00,sdl,5.91
2023-03-09T05:43:00,sdl,5.83
2023-03-09T05:44:00,sdl,5.87
2023-03-09T05:45:00,sdl,5.91
2023-03-09T05:46:00,sdl,5.92
2023-03-09T05:47:00,sdl,5.84
2023-03-09T05:48:00,sdl,3.86
2023-03-09T05:49:00,sdl,3.66
2023-03-09T05:50:00,sdl,3.68
2023-03-09T05:51:00,sdl,3.86
2023-03-09T05:52:00,sdl,3.84
2023-03-09T05:53:00,sdl,3.81
2023-03-09T05:54:00,sdl,4.20
2023-03-09T05:55:00,sdl,4.31
2023-03-09T05:56:00,sdl,4.22
2023-03-09T05:57:00,sdl,4.01
2023-03-09T05:58:00,sdl,4.04
2023-03-09T05:59:00,sdl,4.13
2023-03-09T06:00:00,sdl,4.12
2023-03-09T06:01:00,sdl,4.13
2023-03-09T06:02:00,sdl,4.35
2023-03-09T06:03:00,sdl,4.04
2023-03-09T06:04:00,sdl,4.08
2023-03-09T06:05:00,sdl,4.19
2023-03-09T06:06:00,sdl,4.20
2023-03-09T06:07:00,sdl,6.03
2023-03-09T06:08:00,sdl,6.03
2023-03-09T06:09:00,sdl,6.06
2023-03-09T06:10:00,sdl,6.04
2023-03-09T06:11:00,sdl,6.10
2023-03-09T06:12:00,sdl,6.07
2023-03-09T06:13:00,sdl,4.12
2023-03-09T06:14:00,sdl,4.39
2023-03-09T06:15:00,sdl,4.28
2023-03-09T06:16:00,sdl,4.51
2023-03-09T06:17:00,sdl,4.21
2023-03-09T06:18:00,sdl,4.30
2023-03-09T06:19:00,sdl,4.33
2023-03-09T06:20:00,sdl,4.95
2023-03-09T06:21:00,sdl,4.92
2023-03-09T06:22:00,sdl,4.97
2023-03-09T06:23:00,sdl,5.02
2023-03-09T06:24:00,sdl,7.20
2023-03-09T06:25:00,sdl,8.04
2023-03-09T06:26:00,sdl,7.47
2023-03-09T06:27:00,sdl,7.41
2023-03-09T06:28:00,sdl,6.24
2023-03-09T06:29:00,sdl,6.22
2023-03-09T06:30:00,sdl,6.03
2023-03-09T06:31:00,sdl,6.20
2023-03-09T06:32:00,sdl,6.50
2023-03-09T06:33:00,sdl,5.97
2023-03-09T06:34:00,sdl,5.96
2023-03-09T06:35:00,sdl,5.92
2023-03-09T06:36:00,sdl,5.70
2023-03-09T06:37:00,sdl,6.30
2023-03-09T06:38:00,sdl,6.06
2023-03-09T06:39:00,sdl,5.71
2023-03-09T06:40:00,sdl,5.70
2023-03-09T06:41:00,sdl,3.45
2023-03-09T06:42:00,sdl,3.61
2023-03-09T06:43:00,sdl,3.65
2023-03-09T06:44:00,sdl,3.99
2023-03-09T06:45:00,sdl,3.93
2023-03-09T06:46:00,sdl,3.70
2023-03-09T06:47:00,sdl,3.60
2023-03-09T06:48:00,sdl,4.13
2023-03-09T06:49:00,sdl,4.07
2023-03-09T06:50:00,sdl,4.08
2023-03-09T06:51:00,sdl,4.04
2023-03-09T06:52:00,sdl,4.12
2023-03-09T06:53:00,sdl,4.59
2023-03-09T06:54:00,sdl,4.03
2023-03-09T06:55:00,sdl,4.09
2023-03-09T06:56:00,sdl,4.16
2023-03-09T06:57:00,sdl,4.40
2023-03-09T06:58:00,sdl,4.20
2023-03-09T06:59:00,sdl,4.33
2023-03-09T07:00:00,sdl,4.57
2023-03-09T07:01:00,sdl,3.89
2023-03-09T07:02:00,sdl,3.92
2023-03-09T07:03:00,sdl,3.97
2023-03-09T07:04:00,sdl,4.41
2023-03-09T07:05:00,sdl,4.06
2023-03-09T07:06:00,sdl,4.04
2023-03-09T07:07:00,sdl,4.01
2023-03-09T07:08:00,sdl,4.00
2023-03-09T07:09:00,sdl,3.54
2023-03-09T07:10:00,sdl,3.53
2023-03-09T07:11:00,sdl,3.52
2023-03-09T07:12:00,sdl,3.83
2023-03-09T07:13:00,sdl,3.65
2023-03-09T07:14:00,sdl,4.52
2023-03-09T07:15:00,sdl,5.77
2023-03-09T07:16:00,sdl,5.61
2023-03-09T07:17:00,sdl,5.72
2023-03-09T07:18:00,sdl,5.67
2023-03-09T07:19:00,sdl,5.87
2023-03-09T07:20:00,sdl,5.59
2023-03-09T07:21:00,sdl,5.71
2023-03-09T07:22:00,sdl,5.78
2023-03-09T07:23:00,sdl,6.05
2023-03-09T07:24:00,sdl,6.46
2023-03-09T07:25:00,sdl,8.10
2023-03-09T07:26:00,sdl,8.64
2023-03-09T07:27:00,sdl,8.26
2023-03-09T07:28:00,sdl,7.22
2023-03-09T07:29:00,sdl,8.81
2023-03-09T07:30:00,sdl,8.98
2023-03-09T07:31:00,sdl,9.17
2023-03-09T07:32:00,sdl,9.30
2023-03-09T07:33:00,sdl,9.89
2023-03-09T07:34:00,sdl,9.42
2023-03-09T07:35:00,sdl,9.55
2023-03-09T07:36:00,sdl,7.67
2023-03-09T07:37:00,sdl,7.50
2023-03-09T07:38:00,sdl,7.64
2023-03-09T07:39:00,sdl,12.64
2023-03-09T07:40:00,sdl,7.70
2023-03-09T07:41:00,sdl,7.71
2023-03-09T07:42:00,sdl,7.33
2023-03-09T07:43:00,sdl,7.48
2023-03-09T07:44:00,sdl,9.45
2023-03-09T07:45:00,sdl,9.72
2023-03-09T07:46:00,sdl,9.64
2023-03-09T07:47:00,sdl,9.52
2023-03-09T07:48:00,sdl,9.45
2023-03-09T07:49:00,sdl,9.75
2023-03-09T07:50:00,sdl,9.80
2023-03-09T07:51:00,sdl,9.90
2023-03-09T07:52:00,sdl,9.34
2023-03-09T07:53:00,sdl,8.40
2023-03-09T07:54:00,sdl,8.35
2023-03-09T07:55:00,sdl,8.31
2023-03-09T07:56:00,sdl,6.40
2023-03-09T07:57:00,sdl,6.18
2023-03-09T07:58:00,sdl,6.21
2023-03-09T07:59:00,sdl,6.19
2023-03-09T08:00:00,sdl,6.30
2023-03-09T08:01:00,sdl,6.26
2023-03-09T08:02:00,sdl,6.32
2023-03-09T08:03:00,sdl,6.23
2023-03-09T08:04:00,sdl,6.27
2023-03-09T08:05:00,sdl,7.48
2023-03-09T08:06:00,sdl,7.70
2023-03-09T08:07:00,sdl,7.38
2023-03-09T08:08:00,sdl,7.38
2023-03-09T08:09:00,sdl,7.67
2023-03-09T08:10:00,sdl,7.23
2023-03-09T08:11:00,sdl,7.48
2023-03-09T08:12:00,sdl,8.35
2023-03-09T08:13:00,sdl,7.77
2023-03-09T08:14:00,sdl,7.97
2023-03-09T08:15:00,sdl,7.87
2023-03-09T08:16:00,sdl,8.04
2023-03-09T08:17:00,sdl,8.64
2023-03-09T08:18:00,sdl,7.25
2023-03-09T08:19:00,sdl,7.64
2023-03-09T08:20:00,sdl,7.66
2023-03-09T08:21:00,sdl,9.90
2023-03-09T08:22:00,sdl,9.94
2023-03-09T08:23:00,sdl,11.26
2023-03-09T08:24:00,sdl,11.32
2023-03-09T08:25:00,sdl,11.41
2023-03-09T08:26:00,sdl,11.91
2023-03-09T08:27:00,sdl,11.19
2023-03-09T08:28:00,sdl,11.23
2023-03-09T08:29:00,sdl,11.12
2023-03-09T08:30:00,sdl,11.20
2023-03-09T08:31:00,sdl,11.09
2023-03-09T08:32:00,sdl,11.62
2023-03-09T08:33:00,sdl,11.46
2023-03-09T08:34:00,sdl,11.23
2023-03-09T08:35:00,sdl,11.10
2023-03-09T08:36:00,sdl,10.37
2023-03-09T08:37:00,sdl,10.36
2023-03-09T08:38:00,sdl,10.47
2023-03-09T08:39:00,sdl,10.50
2023-03-09T08:40:00,sdl,9.95
2023-03-09T08:41:00,sdl,8.38
2023-03-09T08:42:00,sdl,8.57
2023-03-09T08:43:00,sdl,8.52
2023-03-09T08:44:00,sdl,8.49
2023-03-09T08:45:00,sdl,8.88
2023-03-09T08:46:00,sdl,8.92
2023-03-09T08:47:00,sdl,8.57
2023-03-09T08:48:00,sdl,13.95
2023-03-09T08:49:00,sdl,10.27
2023-03-09T08:50:00,sdl,15.12
2023-03-09T08:51:00,sdl,10.55
2023-03-09T08:52:00,sdl,9.79
2023-03-09T08:53:00,sdl,10.22
2023-03-09T08:54:00,sdl,9.87
2023-03-09T08:55:00,sdl,10.15
2023-03-09T08:56:00,sdl,10.13
2023-03-09T08:57:00,sdl,9.50
2023-03-09T08:58:00,sdl,9.24
2023-03-09T08:59:00,sdl,9.16
2023-03-09T09:00:00,sdl,9.13
2023-03-09T09:01:00,sdl,8.48
2023-03-09T09:02:00,sdl,8.70
2023-03-09T09:03:00,sdl,8.00
2023-03-09T09:04:00,sdl,8.35
2023-03-09T09:05:00,sdl,8.28
2023-03-09T09:06:00,sdl,9.20
2023-03-09T09:07:00,sdl,9.61
2023-03-09T09:08:00,sdl,9.74
2023-03-09T09:09:00,sdl,9.75
2023-03-09T09:10:00,sdl,9.02
2023-03-09T09:11:00,sdl,8.78
2023-03-09T09:12:00,sdl,10.44
2023-03-09T09:13:00,sdl,10.42
2023-03-09T09:14:00,sdl,10.98
2023-03-09T09:15:00,sdl,10.54
2023-03-09T09:16:00,sdl,10.34
2023-03-09T09:17:00,sdl,10.37
2023-03-09T09:18:00,sdl,10.28
2023-03-09T09:19:00,sdl,10.22
2023-03-09T09:20:00,sdl,9.72
2023-03-09T09:21:00,sdl,10.18
2023-03-09T09:22:00,sdl,9.99
2023-03-09T09:23:00,sdl,10.46
2023-03-09T09:24:00,sdl,10.37
2023-03-09T09:25:00,sdl,10.30
2023-03-09T09:26:00,sdl,10.40
2023-03-09T09:27:00,sdl,10.44
2023-03-09T09:28:00,sdl,8.37
2023-03-09T09:29:00,sdl,8.26
2023-03-09T09:30:00,sdl,8.40
2023-03-09T09:31:00,sdl,8.26
2023-03-09T09:32:00,sdl,7.97
2023-03-09T09:33:00,sdl,7.85
2023-03-09T09:34:00,sdl,8.07
2023-03-09T09:35:00,sdl,8.65
2023-03-09T09:36:00,sdl,9.99
2023-03-09T09:37:00,sdl,9.29
2023-03-09T09:38:00,sdl,9.79
2023-03-09T09:39:00,sdl,9.82
2023-03-09T09:40:00,sdl,9.87
2023-03-09T09:41:00,sdl,9.66
2023-03-09T09:42:00,sdl,10.03
2023-03-09T09:43:00,sdl,9.85
2023-03-09T09:44:00,sdl,9.43
2023-03-09T09:45:00,sdl,8.28
2023-03-09T09:46:00,sdl,6.85
2023-03-09T09:47:00,sdl,6.91
2023-03-09T09:48:00,sdl,6.79
2023-03-09T09:49:00,sdl,6.65
2023-03-09T09:50:00,sdl,6.87
2023-03-09T09:51:00,sdl,6.86
2023-03-09T09:52:00,sdl,7.37
2023-03-09T09:53:00,sdl,6.90
2023-03-09T09:54:00,sdl,8.98
2023-03-09T09:55:00,sdl,9.09
2023-03-09T09:56:00,sdl,9.11
2023-03-09T09:57:00,sdl,9.12
2023-03-09T09:58:00,sdl,9.97
2023-03-09T09:59:00,sdl,9.32
2023-03-09T10:00:00,sdl,9.20
2023-03-09T10:01:00,sdl,9.31
2023-03-09T10:02:00,sdl,10.03
2023-03-09T10:03:00,sdl,9.83
2023-03-09T10:04:00,sdl,7.07
2023-03-09T10:05:00,sdl,7.08
2023-03-09T10:06:00,sdl,7.13
2023-03-09T10:07:00,sdl,7.29
2023-03-09T10:08:00,sdl,7.58
2023-03-09T10:09:00,sdl,7.00
2023-03-09T10:10:00,sdl,8.12
2023-03-09T10:11:00,sdl,7.29
2023-03-09T10:12:00,sdl,7.29
2023-03-09T10:13:00,sdl,7.16
2023-03-09T10:14:00,sdl,7.87
2023-03-09T10:15:00,sdl,7.25
2023-03-09T10:16:00,sdl,7.01
2023-03-09T10:17:00,sdl,6.97
2023-03-09T10:18:00,sdl,9.45
2023-03-09T10:19:00,sdl,9.26
2023-03-09T10:20:00,sdl,9.26
2023-03-09T10:21:00,sdl,9.35
2023-03-09T10:22:00,sdl,9.47
2023-03-09T10:23:00,sdl,9.57
2023-03-09T10:24:00,sdl,9.69
2023-03-09T10:25:00,sdl,9.51
2023-03-09T10:26:00,sdl,9.54
2023-03-09T10:27:00,sdl,9.64
2023-03-09T10:28:00,sdl,9.52
2023-03-09T10:29:00,sdl,10.80
2023-03-09T10:30:00,sdl,11.26
2023-03-09T10:31:00,sdl,11.18
2023-03-09T10:32:00,sdl,11.42
2023-03-09T10:33:00,sdl,11.21
2023-03-09T10:34:00,sdl,9.35
2023-03-09T10:35:00,sdl,9.49
2023-03-09T10:36:00,sdl,9.42
2023-03-09T10:37:00,sdl,9.45
2023-03-09T10:38:00,sdl,7.25
2023-03-09T10:39:00,sdl,7.26
2023-03-09T10:40:00,sdl,7.24
2023-03-09T10:41:00,sdl,7.13
2023-03-09T10:42:00,sdl,6.74
2023-03-09T10:43:00,sdl,7.03
2023-03-09T10:44:00,sdl,7.03
2023-03-09T10:45:00,sdl,6.74
2023-03-09T10:46:00,sdl,6.76
2023-03-09T10:47:00,sdl,6.77
2023-03-09T10:48:00,sdl,6.62
2023-03-09T10:49:00,sdl,7.12
2023-03-09T10:50:00,sdl,6.97
2023-03-09T10:51:00,sdl,6.83
2023-03-09T10:52:00,sdl,6.96
2023-03-09T10:53:00,sdl,6.88
2023-03-09T10:54:00,sdl,6.91
2023-03-09T10:55:00,sdl,6.30
2023-03-09T10:56:00,sdl,5.08
2023-03-09T10:57:00,sdl,6.13
2023-03-09T10:58:00,sdl,6.65
2023-03-09T10:59:00,sdl,5.94
2023-03-09T11:00:00,sdl,5.48
2023-03-09T11:01:00,sdl,7.83
2023-03-09T11:02:00,sdl,8.02
2023-03-09T11:03:00,sdl,8.11
2023-03-09T11:04:00,sdl,7.66
2023-03-09T11:05:00,sdl,7.58
2023-03-09T11:06:00,sdl,7.67
2023-03-09T11:07:00,sdl,7.68
2023-03-09T11:08:00,sdl,7.74
2023-03-09T11:09:00,sdl,7.83
2023-03-09T11:10:00,sdl,8.12
2023-03-09T11:11:00,sdl,7.77
2023-03-09T11:12:00,sdl,7.55
2023-03-09T11:13:00,sdl,7.50
2023-03-09T11:14:00,sdl,7.50
2023-03-09T11:15:00,sdl,7.94
2023-03-09T11:16:00,sdl,8.28
2023-03-09T11:17:00,sdl,8.26
2023-03-09T11:18:00,sdl,8.75
2023-03-09T11:19:00,sdl,8.49
2023-03-09T11:20:00,sdl,9.16
2023-03-09T11:21:00,sdl,8.37
2023-03-09T11:22:00,sdl,6.21
2023-03-09T11:23:00,sdl,6.11
2023-03-09T11:24:00,sdl,6.12
2023-03-09T11:25:00,sdl,6.32
2023-03-09T11:26:00,sdl,6.36
2023-03-09T11:27:00,sdl,6.93
2023-03-09T11:28:00,sdl,6.10
2023-03-09T11:29:00,sdl,6.11
2023-03-09T11:30:00,sdl,6.01
2023-03-09T11:31:00,sdl,6.19
2023-03-09T11:32:00,sdl,6.22
2023-03-09T11:33:00,sdl,6.15
2023-03-09T11:34:00,sdl,6.08
2023-03-09T11:35:00,sdl,6.00
2023-03-09T11:36:00,sdl,6.08
2023-03-09T11:37:00,sdl,6.04
2023-03-09T11:38:00,sdl,8.44
2023-03-09T11:39:00,sdl,8.04
2023-03-09T11:40:00,sdl,6.63
2023-03-09T11:41:00,sdl,6.60
2023-03-09T11:42:00,sdl,6.64
2023-03-09T11:43:00,sdl,6.83
2023-03-09T11:44:00,sdl,6.82
2023-03-09T11:45:00,sdl,6.98
2023-03-09T11:46:00,sdl,7.09
2023-03-09T11:47:00,sdl,6.90
2023-03-09T11:48:00,sdl,7.09
2023-03-09T11:49:00,sdl,4.94
2023-03-09T11:50:00,sdl,4.77
2023-03-09T11:51:00,sdl,4.86
2023-03-09T11:52:00,sdl,5.17
2023-03-09T11:53:00,sdl,4.31
2023-03-09T11:54:00,sdl,4.29
2023-03-09T11:55:00,sdl,5.98
2023-03-09T11:56:00,sdl,5.98
2023-03-09T11:57:00,sdl,5.94
2023-03-09T11:58:00,sdl,6.60
2023-03-09T11:59:00,sdl,6.23
2023-03-09T12:00:00,sdl,6.31
2023-03-09T12:01:00,sdl,6.60
2023-03-09T12:02:00,sdl,6.56
2023-03-09T12:03:00,sdl,6.28
2023-03-09T12:04:00,sdl,6.24
2023-03-09T12:05:00,sdl,6.17
2023-03-09T12:06:00,sdl,6.33
2023-03-09T12:07:00,sdl,9.44
2023-03-09T12:08:00,sdl,8.38
2023-03-09T12:09:00,sdl,8.43
2023-03-09T12:10:00,sdl,8.43
2023-03-09T12:11:00,sdl,8.48
2023-03-09T12:12:00,sdl,8.36
2023-03-09T12:13:00,sdl,8.39
2023-03-09T12:14:00,sdl,8.27
2023-03-09T12:15:00,sdl,8.32
2023-03-09T12:16:00,sdl,8.23
2023-03-09T12:17:00,sdl,8.35
2023-03-09T12:18:00,sdl,8.39
2023-03-09T12:19:00,sdl,8.38
2023-03-09T12:20:00,sdl,8.73
2023-03-09T12:21:00,sdl,8.49
2023-03-09T12:22:00,sdl,8.33
2023-03-09T12:23:00,sdl,8.43
2023-03-09T12:24:00,sdl,8.53
2023-03-09T12:25:00,sdl,8.63
2023-03-09T12:26:00,sdl,8.63
2023-03-09T12:27:00,sdl,6.43
2023-03-09T12:28:00,sdl,6.46
2023-03-09T12:29:00,sdl,7.32
2023-03-09T12:30:00,sdl,7.00
2023-03-09T12:31:00,sdl,6.59
2023-03-09T12:32:00,sdl,6.05
2023-03-09T12:33:00,sdl,6.27
2023-03-09T12:34:00,sdl,7.14
2023-03-09T12:35:00,sdl,6.90
2023-03-09T12:36:00,sdl,6.98
2023-03-09T12:37:00,sdl,7.79
2023-03-09T12:38:00,sdl,7.27
2023-03-09T12:39:00,sdl,7.38
2023-03-09T12:40:00,sdl,7.38
2023-03-09T12:41:00,sdl,6.08
2023-03-09T12:42:00,sdl,5.92
2023-03-09T12:43:00,sdl,5.97
2023-03-09T12:44:00,sdl,5.99
2023-03-09T12:45:00,sdl,6.96
2023-03-09T12:46:00,sdl,6.68
2023-03-09T12:47:00,sdl,6.46
2023-03-09T12:48:00,sdl,4.90
2023-03-09T12:49:00,sdl,6.80
2023-03-09T12:50:00,sdl,6.77
2023-03-09T12:51:00,sdl,6.67
2023-03-09T12:52:00,sdl,6.82
2023-03-09T12:53:00,sdl,8.40
2023-03-09T12:54:00,sdl,8.01
2023-03-09T12:55:00,sdl,7.81
2023-03-09T12:56:00,sdl,7.29
2023-03-09T12:57:00,sdl,8.52
2023-03-09T12:58:00,sdl,11.40
2023-03-09T12:59:00,sdl,11.05
2023-03-09T13:00:00,sdl,11.75
2023-03-09T13:01:00,sdl,11.49
2023-03-09T13:02:00,sdl,11.25
2023-03-09T13:03:00,sdl,11.23
2023-03-09T13:04:00,sdl,11.10
2023-03-09T13:05:00,sdl,11.08
2023-03-09T13:06:00,sdl,11.14
2023-03-09T13:07:00,sdl,11.04
2023-03-09T13:08:00,sdl,11.37
2023-03-09T13:09:00,sdl,11.04
2023-03-09T13:10:00,sdl,11.05
2023-03-09T13:11:00,sdl,11.41
2023-03-09T13:12:00,sdl,11.08
2023-03-09T13:13:00,sdl,10.09
2023-03-09T13:14:00,sdl,8.93
2023-03-09T13:15:00,sdl,8.77
2023-03-09T13:16:00,sdl,9.89
2023-03-09T13:17:00,sdl,8.87
2023-03-09T13:18:00,sdl,7.73
2023-03-09T13:19:00,sdl,9.10
2023-03-09T13:20:00,sdl,7.99
2023-03-09T13:21:00,sdl,10.77
2023-03-09T13:22:00,sdl,9.77
2023-03-09T13:23:00,sdl,8.97
2023-03-09T13:24:00,sdl,10.58
2023-03-09T13:25:00,sdl,8.96
2023-03-09T13:26:00,sdl,9.04
2023-03-09T13:27:00,sdl,9.91
2023-03-09T13:28:00,sdl,9.26
2023-03-09T13:29:00,sdl,8.78
2023-03-09T13:30:00,sdl,11.46
2023-03-09T13:31:00,sdl,12.29
2023-03-09T13:32:00,sdl,12.87
2023-03-09T13:33:00,sdl,12.74
2023-03-09T13:34:00,sdl,12.71
2023-03-09T13:35:00,sdl,12.45
2023-03-09T13:36:00,sdl,10.82
2023-03-09T13:37:00,sdl,10.78
2023-03-09T13:38:00,sdl,11.39
2023-03-09T13:39:00,sdl,11.32
2023-03-09T13:40:00,sdl,10.89
2023-03-09T13:41:00,sdl,8.90
2023-03-09T13:42:00,sdl,8.71
2023-03-09T13:43:00,sdl,8.64